Location: Bridalveil Moraine
(37.7171°N, 119.6568°W)
Time: 10:23:11
(UTC+00:00)

BlueWalker 3 - Pass Details

Date: 11 August 2024
Orbit: 476 x 487 km, 53.2° (Epoch: 07 September)

Event Time Altitude Azimuth Distance (km) Brightness Sun altitude
Exits shadow 11:03:44 10° 318° (NW) 1,695 4.6 -22.4°
Reaches altitude 10° 11:03:48 10° 319° (NW) 1,686 4.6 -22.4°
Maximum altitude 11:05:14 12° 341° (NNW) 1,580 4.7 -22.2°
Drops below altitude 10° 11:06:41 10° 4° (N) 1,689 5.2 -22.0°
Sets 11:10:11 0° 37° (NE) 2,575 7.0 -21.5°
